Location: Newark
(43.0000°N, 1.6781°W)
Time: 09:26:18
(UTC+00:00)

AO-7 - Pass Details

Date: 14 December 2022
Orbit: 1440 x 1459 km, 101.9° (Epoch: 28 January)

Event Time Altitude Azimuth Distance (km) Brightness Sun altitude
Rises 03:22:40 0° 29° (NNE) 4,548 ? -44.2°
Reaches altitude 10° 03:26:19 10° 44° (NE) 3,568 ? -43.6°
Maximum altitude 03:32:30 23° 93° (E) 2,715 ? -42.4°
Drops below altitude 10° 03:38:39 10° 141° (SE) 3,563 ? -41.3°
Sets 03:42:15 0° 156° (SSE) 4,540 ? -40.7°
